Regional Weather Roundup
Issued by NWS

Home | Current Version | Previous Version | Graphics & Text | Print | Product List | Glossary On
Versions: 1 2 3 4 5 6 7 8 9 10 11 12 13 14 15 16 17 18 19 20 21 22 23 24 25 26 27 28 29 30 31 32 33 34 35 36 37 38 39 40 41 42 43 44 45 46 47 48 49 50
000
ASUS43 KFSD 291902
RWRSD

WEATHER ROUNDUP FOR SOUTH DAKOTA
NATIONAL WEATHER SERVICE SIOUX FALLS SD
200 PM CDT SUN MAR 29 2015

NOTE: "FAIR" INDICATES FEW OR NO CLOUDS BELOW 12,000 FEET WITH NO
SIGNIFICANT WEATHER AND/OR OBSTRUCTIONS TO VISIBILITY.


SDZ001>005-009-010-012>017-292000-
NORTHWEST AND NORTH CENTRAL SOUTH DAKOTA

CITY           SKY/WX    TMP DP  RH WIND       PRES   REMARKS
BUFFALO          N/A     58  32  37 NW24G35   30.04F
FAITH            N/A     57  25  29 NW20G28   30.11F
MOBRIDGE       SUNNY     57  26  30 NW21G28   30.06S
$$

SDZ012>016-024>037-041>051-057-063-072>074-292000-
SOUTHWEST AND SOUTH CENTRAL SOUTH DAKOTA

CITY           SKY/WX    TMP DP  RH WIND       PRES   REMARKS
RAPID CTY ARPT SUNNY     61  30  31 N18G26    30.14F
PIERRE         SUNNY     56  26  31 NW22      30.11S
CUSTER         SUNNY     52  21  29 W13G24    30.18F
ELLSWORTH AFB  MOSUNNY   60  30  31 N16G24    30.14
PHILIP         SUNNY     60  21  22 NW18G25   30.14F
PINE RIDGE     SUNNY     57  26  30 NW10G20   30.19F
$$

SDZ004>011-016>023-039-040-292000-
NORTHEAST SOUTH DAKOTA

CITY           SKY/WX    TMP DP  RH WIND       PRES   REMARKS
ABERDEEN       MOSUNNY   57  24  28 NW26G35   30.03R
WATERTOWN      SUNNY     53  29  39 NW30G40   29.95S
SISSETON         N/A     53  35  50 N32G40    29.92R
$$

SDZ017-020-022-023-036>040-048>070-292000-
SOUTHEAST SOUTH DAKOTA

CITY           SKY/WX    TMP DP  RH WIND       PRES   REMARKS
SIOUX FALLS    MOSUNNY   57  27  31 NW28G40   29.97R
HURON          SUNNY     57  28  33 NW31G41   30.02F
MITCHELL       SUNNY     58  27  30 NW28G37   30.04F
YANKTON        SUNNY     57  28  33 N26G36    30.04R
$$

ABBREVIATIONS USED IN REMARKS
   TC - TEMPERATURE IN CELSIUS
  WCI - WIND CHILL INDEX
   HX - HEAT INDEX
  VSB - VISIBILITY




USA.gov is the U.S. government's official web portal to all federal, state and local government web resources and services.